Zurück zum Katalog

FENGYUN 1C DEB

AktivSSO
NORAD 30937·DEBRIS·🇨🇳 China

Gestartet May 10, 1999 von Taiyuan Satellite Launch Center

Loading…

Nächste Überflüge (nächste 24 Stunden)

TLE

AktuellSource: Space-Track

Epoche: Sep 14, 2026, 10:36 UTC

1 30937U 99025BAB 26257.44175147  .00000210  00000-0  18183-3 0  9999
2 30937  99.0506 310.3882 0075323  18.8806 353.9507 13.95651819995620

Verfolge FENGYUN 1C DEB in Echtzeit mit AllMySat

Download on the App Store